Weather in Fengcheng

China     40°27′09″N   124°04′33″E
temp.,
°C
wind,
m/s
gust,
m/s
humid.,
%
clouds,
%
prec.,
mm/h
press.,
hPa
HPBL,
m
11 may, tue
tue1123:00+11nne22750 0.0 101511
02:00+10n22740 0.0 101511
05:00+9n22730 0.0 101517
08:00+16ne22564 0.0 1015326
11:00+21ese233865 0.0 10141324
14:00+22sse2332100 0.0 10121929
17:00+20ssw5845100 0.0 1011428
20:00+13sw2253100 0.0 101212
12 may, wed
wed1223:00+12s2255100 0.0 101211
02:00+11s116210 0.0 101210
05:00+12sse2364100 0.0 101386
08:00+12s4891100 0.2 1014680
11:00+11s2594100 0.3 1015551
14:00+13s2385100 0.3 1014646
17:00+14se137777 0.0 1013615
20:00+12ene118968 0.0 101510
13 may, thu
thu1323:00+10nne11935 0.0 101510
02:00+9nne119411 0.0 101410
05:00+10nne1194100 0.0 101428
08:00+13nne1186100 0.0 1014140
11:00+14sse118399 0.1 1013251
14:00+18sse247290 0.1 1012600
17:00+18s127398 0.0 1011580
20:00+14sse228975 0.0 101113
14 may, fri
fri1423:00+13w01915 0.0 101210
02:00+12s119218 0.0 101110
05:00+12ne019373 0.0 101110
08:00+18sse247391 0.0 1011500
11:00+22ssw4657100 0.0 10101146
14:00+24ssw675291 0.0 10081223
17:00+22s46622 0.0 1007793
20:00+15s22846 0.0 100911
15 may, sat
sat1523:00+13se1188100 0.0 100910
02:00+13nne1190100 0.0 100910
05:00+14n1286100 0.1 100951
08:00+16n2283100 0.1 1008170
11:00+18nnw3480100 0.0 1007345
14:00+22n356685 0.0 10051053
17:00+21n57684 0.0 1005833
20:00+14nnw34825 0.0 100776